Time,TemperatureF,DewpointF,PressureIn,WindDirection,WindDirectionDegrees,WindSpeedMPH,WindSpeedGustMPH,Humidity,HourlyPrecipIn,Conditions,Clouds,dailyrainin,SoftwareType,DateUTC
2013-08-22 00:23:00,71.0,69.0,30.04,North,0,0.0,0.0,93,0.00,,,0.00,,2013-08-22 04:23:00,
2013-08-22 00:54:00,71.0,69.0,30.05,North,0,0.0,0.0,93,0.00,,,0.00,,2013-08-22 04:54:00,
2013-08-22 01:22:00,71.0,69.0,30.06,North,0,0.0,0.0,93,0.00,,,0.00,,2013-08-22 05:22:00,
2013-08-22 01:53:00,71.0,69.0,30.06,North,0,0.0,0.0,94,0.00,,,0.00,,2013-08-22 05:53:00,
2013-08-22 02:22:00,71.0,69.0,30.06,North,0,0.0,0.0,95,0.00,,,0.00,,2013-08-22 06:22:00,
2013-08-22 02:52:00,72.0,71.0,30.05,North,0,0.0,0.0,96,0.00,,,0.00,,2013-08-22 06:52:00,
2013-08-22 03:22:00,72.0,71.0,30.05,North,0,0.0,0.0,96,0.00,,,0.00,,2013-08-22 07:22:00,
2013-08-22 03:53:00,73.0,72.0,30.03,North,0,0.0,0.0,96,0.00,,,0.00,,2013-08-22 07:53:00,
2013-08-22 04:22:00,72.0,71.0,30.02,North,0,0.0,0.0,96,0.00,,,0.00,,2013-08-22 08:22:00,
2013-08-22 04:53:00,72.0,71.0,30.01,North,0,0.0,0.0,96,0.00,,,0.00,,2013-08-22 08:53:00,
2013-08-22 05:22:00,72.0,71.0,30.01,North,0,0.0,0.0,96,0.00,,,0.00,,2013-08-22 09:22:00,
2013-08-22 05:54:00,71.0,70.0,30.01,North,0,0.0,0.0,96,0.00,,,0.00,,2013-08-22 09:54:00,
2013-08-22 06:23:00,71.0,70.0,30.01,North,0,0.0,0.0,96,0.00,,,0.00,,2013-08-22 10:23:00,
2013-08-22 08:52:00,74.0,73.0,30.01,North,0,0.0,4.0,97,0.00,,,0.00,,2013-08-22 12:52:00,
2013-08-22 09:22:00,74.0,73.0,30.01,North,0,0.0,4.0,96,0.00,,,0.00,,2013-08-22 13:22:00,
2013-08-22 09:52:00,74.0,72.0,30.01,North,0,0.0,4.0,94,0.00,,,0.00,,2013-08-22 13:52:00,
2013-08-22 10:22:00,75.0,73.0,30.01,West,277,1.0,7.0,93,0.00,,,0.00,,2013-08-22 14:22:00,
2013-08-22 10:52:00,75.0,72.0,30.01,North,0,0.0,5.0,91,0.00,,,0.00,,2013-08-22 14:52:00,
2013-08-22 11:22:00,76.0,73.0,30.01,North,0,0.0,7.0,90,0.00,,,0.00,,2013-08-22 15:22:00,
2013-08-22 11:55:00,76.0,73.0,30.01,North,0,0.0,2.0,89,0.00,,,0.00,,2013-08-22 15:55:00,
2013-08-22 12:25:00,77.0,72.0,30.00,North,0,0.0,5.0,86,0.00,,,0.00,,2013-08-22 16:25:00,
2013-08-22 12:54:00,79.0,75.0,29.99,North,0,0.0,1.0,88,0.00,,,0.00,,2013-08-22 16:54:00,
2013-08-22 13:24:00,82.0,75.0,29.98,North,0,0.0,2.0,79,0.00,,,0.00,,2013-08-22 17:24:00,
2013-08-22 13:53:00,81.0,73.0,29.96,North,0,0.0,2.0,78,0.00,,,0.00,,2013-08-22 17:53:00,
2013-08-22 14:22:00,80.0,74.0,29.96,North,0,0.0,5.0,82,0.02,,,0.02,,2013-08-22 18:22:00,
2013-08-22 14:52:00,74.0,72.0,29.94,North,0,0.0,0.0,95,0.06,,,0.06,,2013-08-22 18:52:00,
2013-08-22 15:22:00,75.0,74.0,29.93,North,0,0.0,2.0,96,0.04,,,0.06,,2013-08-22 19:22:00,
2013-08-22 15:53:00,78.0,76.0,29.93,North,0,0.0,1.0,93,0.00,,,0.06,,2013-08-22 19:53:00,
2013-08-22 16:23:00,76.0,74.0,29.93,North,0,0.0,1.0,92,0.00,,,0.06,,2013-08-22 20:23:00,
2013-08-22 16:52:00,79.0,76.0,29.91,North,0,0.0,3.0,90,0.00,,,0.06,,2013-08-22 20:52:00,
2013-08-22 17:22:00,78.0,73.0,29.91,North,0,0.0,1.0,85,0.00,,,0.06,,2013-08-22 21:22:00,
2013-08-22 17:54:00,78.0,73.0,29.90,North,0,0.0,0.0,86,0.00,,,0.06,,2013-08-22 21:54:00,
2013-08-22 18:25:00,79.0,75.0,29.90,North,0,0.0,3.0,87,0.00,,,0.06,,2013-08-22 22:25:00,
2013-08-22 18:53:00,79.0,75.0,29.90,North,0,0.0,0.0,87,0.00,,,0.06,,2013-08-22 22:53:00,
2013-08-22 19:23:00,79.0,75.0,29.89,North,0,0.0,0.0,87,0.00,,,0.06,,2013-08-22 23:23:00,
2013-08-22 19:53:00,78.0,73.0,29.89,North,0,0.0,1.0,85,0.00,,,0.06,,2013-08-22 23:53:00,
2013-08-22 20:23:00,77.0,72.0,29.89,North,0,0.0,0.0,86,0.00,,,0.06,,2013-08-23 00:23:00,
2013-08-22 20:52:00,76.0,72.0,29.90,North,0,0.0,0.0,88,0.00,,,0.06,,2013-08-23 00:52:00,
2013-08-22 21:21:00,75.0,71.0,29.91,North,0,0.0,0.0,88,0.00,,,0.06,,2013-08-23 01:21:00,
2013-08-22 21:52:00,73.0,70.0,29.91,North,0,0.0,0.0,90,0.00,,,0.06,,2013-08-23 01:52:00,
2013-08-22 22:23:00,72.0,69.0,29.91,North,0,0.0,0.0,91,0.00,,,0.06,,2013-08-23 02:23:00,
2013-08-22 22:52:00,72.0,70.0,29.91,North,0,0.0,3.0,92,0.00,,,0.06,,2013-08-23 02:52:00,
2013-08-22 23:23:00,72.0,70.0,29.91,North,0,0.0,0.0,93,0.00,,,0.06,,2013-08-23 03:23:00,
2013-08-22 23:55:00,71.0,69.0,29.91,North,0,0.0,1.0,92,0.00,,,0.06,,2013-08-23 03:55:00,